Weather in Medveditsa

Russia / Volgograd Oblast     51˚04′52″N   44˚49′11″E
temp.,
°C
wind,
m/s
gust,
m/s
humid.,
%
clouds,
%
prec.,
mm/h
press.,
hPa
HPBL,
m
17 january, sun
sun1700:00−15˚wsw61394100 0.1 1011506
03:00−16˚wsw61295100 0.1 1013384
06:00−19˚wsw41098100 0.0 1013238
09:00−21˚sw339998 0.1 101559
12:00−18˚wsw249575 0.0 1015206
15:00−18˚w119579 0.0 101520
18:00−20˚wnw019593 0.0 101720
21:00−18˚nne349497 0.0 1017100
18 january, mon
mon1800:00−17˚ne3493100 0.0 1017105
03:00−18˚ne3392100 0.0 101744
06:00−17˚ene3693100 0.0 1016186
09:00−17˚ene3692100 0.0 1017199
12:00−15˚ne4696100 0.9 1016229
15:00−14˚nne3595100 2.6 1015259
18:00−14˚ne3695100 0.3 1015230
21:00−15˚n3496100 0.4 1015107
19 january, tue
tue1900:00−16˚nnw2396100 0.1 101651
03:00−17˚nw2396100 0.1 101622
06:00−20˚nw229999 0.0 101620
09:00−21˚wnw229881 0.0 101821
12:00−18˚w359578 0.0 1017224
15:00−18˚w349678 0.1 1017227
18:00−19˚wsw229898 0.1 101829
21:00−21˚wsw239994 0.2 101835
20 january, wed
wed2000:00−21˚wsw2398100 0.0 101841
03:00−22˚wsw2398100 0.1 101933
06:00−22˚wsw249998 0.1 1020112
09:00−22˚wsw349897 0.1 102188
12:00−20˚w359695 0.0 1022253
15:00−21˚w359786 0.0 1022167
18:00−24˚w239978 0.0 102421
21:00−23˚w2310070 0.0 102521
21 january, thu
thu2100:00−24˚w239840 0.0 102623
03:00−24˚w239848 0.0 102722
06:00−23˚w239958 0.0 102723
09:00−22˚w239859 0.0 102843
12:00−18˚wsw469545 0.0 1028229
15:00−17˚wsw369662 0.0 1027189
18:00−20˚sw339897 0.0 102753
21:00−17˚ssw499398 0.0 1026197